SCP
0 0 0 0 0 0 0 0 0 0 0 0 0 0 0 0 0 0 0 0 0 0 0 0 0 0 0 0 0 0 0 0 0 0 0 0 0 0 0 0 0 0 0
0 0 0 0 0 0 0 0 0 0 0 0 0 0 0 0 0 0 0 0 0 0 0 0 0 0 0 0 0 0 0 0 0 0 0 0 0 0 0 0 0 0 0
0 0 0 0 0 0 0 0 0 0 0 0 0 0 0 0 0 0 0 0 0 0 0 0 0 0 0 0 0 0 0 0 0 0 0 0 0 0 0 0 0 0 0
0 0 0 0 0 0 0 0 0 0 0 0 0 0 0 0 0 0 0 0 0 0 0 0 0 0 0 0 0 0 0 0 0 0 0 0 0 0 0 0 0 0 0
0 0 0 0 0 0 0 0 0 0 0 0 0 0 0 0 0 0 0 0 0 0 0 0 0 0 0 0 0 0 0 0 0 0 0 0 0 0 0 0 0 0 0
0 0 0 0 0 0 0 0 0 0 0 0 0 0 0 0 0 0 0 0 0 0 0 0 0 0 0 0 0 0 0 0 0 0 0 0 0 0 0 0 0 0 0
1 0 0 0 0 0 0 0 0 0 0 0 0 0 0 0 0 0 0 0 0 0 0 0 0 0 0 0 0 0 0 0 0 0 0 0 0 0 0 0 0 0 0
1 0 0 0 0 0 0 0 0 0 0 0 0 0 0 0 0 0 0 -0 -0 -0 0 0 0 0 0 0 0 0 0 0 0 0 0 0 0 0 0 0 0 0 0
1 1 0 0 0 0 0 0 0 0 0 0 0 0 0 0 0 0 0 0 -0 0 0 0 0 0 0 0 0 0 0 0 0 0 0 0 0 0 0 0 0 0 0
1 1 0 0 0 0 0 0 0 0 0 0 0 0 0 0 0 0 0 0 0 0 0 0 0 0 0 0 0 0 0 0 0 0 0 0 0 0 0 0 0 0 0
1 1 1 0 0 0 0 0 0 0 0 0 0 0 0 0 0 0 0 0 0 0 0 0 0 0 0 0 0 0 0 0 0 0 0 0 0 0 0 0 0 0 0
1 1 1 1 0 0 0 0 0 0 0 0 0 0 0 0 0 0 0 0 0 0 0 0 0 0 0 0 0 0 0 0 0 0 0 0 0 0 0 0 0 0 0
1 1 1 1 0 0 0 0 0 0 0 0 0 0 0 0 0 0 0 0 0 0 0 0 0 0 0 0 0 0 0 0 0 0 0 0 0 0 0 0 0 0 0
1 1 1 1 1 0 0 0 0 0 0 0 0 0 0 0 0 0 0 0 0 0 0 0 0 0 0 0 0 0 0 0 0 0 0 0 0 0 0 0 0 0 0
1 1 1 1 1 1 1 0 0 0 0 0 0 0 0 0 0 0 0 0 0 0 0 0 0 0 0 0 0 0 0 0 0 0 0 0 0 0 0 0 0 0 0
0 1 1 1 1 1 1 1 0 0 0 0 0 0 0 0 0 0 0 0 0 0 0 0 0 0 0 0 0 0 0 0 0 0 0 0 0 0 0 0 0 0 0
0 0 1 1 2 1 1 1 1 0 0 0 0 0 0 0 0 0 0 0 0 0 0 0 0 0 0 0 0 0 0 0 0 0 0 0 0 0 0 0 0 0 0
0 0 1 1 2 2 2 2 1 1 0 0 0 0 0 0 0 0 0 0 0 0 0 0 0 0 0 0 0 0 0 0 0 0 0 0 0 0 0 0 0 0 0
0 0 0 1 2 2 2 2 2 1 1 0 0 0 0 0 0 0 0 0 0 0 0 0 0 0 0 0 0 0 0 0 0 0 0 0 0 0 0 0 0 0 0
0 0 0 1 2 3 3 3 2 2 1 1 0 0 0 0 0 0 0 0 0 0 0 0 0 0 0 0 0 0 0 0 0 0 0 0 0 0 0 0 0 0 0
0 0 0 0 1 2 3 3 3 3 2 1 1 0 0 0 0 0 0 0 0 0 0 0 0 0 0 0 0 0 0 0 0 0 0 0 0 0 0 0 0 0 0
0 0 0 0 1 2 3 4 4 3 2 1 1 0 0 0 0 0 0 0 0 0 0 0 0 0 0 0 0 0 0 0 0 0 0 0 0 0 0 0 0 0 0
0 0 0 0 0 1 2 3 3 3 2 1 1 1 0 0 0 0 0 0 0 0 0 0 0 0 0 0 0 0 0 0 0 0 0 0 0 0 0 0 0 0 0
0 0 0 0 0 1 2 3 3 2 2 1 1 1 0 0 0 0 0 0 0 0 0 0 0 0 0 0 0 0 0 0 0 0 0 0 0 0 0 0 0 0 0
0 0 0 0 0 0 1 2 3 2 1 1 1 0 0 0 0 0 0 0 0 0 0 0 0 0 0 0 0 0 0 0 0 0 0 0 0 0 0 0 0 0 0
0 0 0 0 0 0 1 1 2 2 1 0 0 0 0 0 0 0 0 0 0 0 0 0 0 0 0 0 0 0 0 0 0 0 0 0 0 0 0 0 0 0 0
Wind_Speed
8 9 17 18 18 17 17 17 17 17 18 18 17 16 15 14 12 11 10 9 9 9 11 13 15 16 14 13 12 11 10 10 10 10 8 8 7 8 7 7 7 3 6
11 11 17 18 18 17 17 16 16 17 17 18 17 16 15 13 12 11 10 10 11 12 13 15 15 15 13 11 10 9 9 9 8 6 4 3 3 4 6 5 4 2 4
15 12 14 17 18 18 17 16 16 16 17 17 17 16 14 13 12 11 10 10 11 12 13 14 14 13 12 10 9 8 8 7 6 4 2 1 1 3 5 4 3 3 2
16 12 12 16 18 18 17 16 16 17 17 17 17 16 14 13 12 12 11 11 11 11 11 12 12 11 10 9 8 7 6 5 6 5 2 3 2 3 4 3 2 2 1
13 11 12 17 18 17 16 16 16 17 18 17 17 16 15 14 13 12 12 12 11 10 10 10 10 10 9 8 6 5 4 5 7 5 3 3 1 3 4 3 2 1 1
11 10 12 17 18 17 16 16 16 17 18 17 17 16 15 14 13 13 12 12 11 10 10 10 9 8 7 6 4 4 4 6 6 3 3 3 1 3 5 5 4 2 1
12 10 12 17 18 17 16 16 17 17 18 17 17 16 15 14 13 13 12 11 10 9 9 9 8 7 6 5 4 4 6 7 4 3 3 2 2 6 7 7 7 8 8
15 12 11 17 16 16 16 16 17 18 18 17 16 15 14 14 13 13 12 11 10 9 8 8 8 7 6 4 4 5 6 6 5 5 3 2 5 8 10 12 13 15 15
13 12 9 10 11 14 14 14 15 16 16 15 15 14 12 11 13 13 12 11 9 8 7 7 7 7 6 5 5 6 6 7 5 3 3 2 8 11 13 14 15 16 17
11 11 10 9 8 8 9 12 13 13 13 13 13 11 10 10 11 13 11 10 9 8 7 7 7 6 5 5 7 8 10 9 5 4 2 4 11 12 12 13 13 14 14
11 10 10 10 8 7 7 10 10 11 11 11 10 11 9 5 6 8 8 9 8 8 7 7 6 5 4 5 7 10 8 4 4 3 2 9 12 12 12 12 12 12 12
14 12 10 11 10 8 8 6 5 6 6 6 6 7 5 4 4 7 9 10 9 8 6 6 5 4 4 3 5 7 4 5 4 3 4 11 12 11 11 11 10 10 10
14 14 13 12 11 10 7 6 4 3 4 5 7 7 5 4 3 4 3 4 5 5 3 3 3 2 3 3 3 4 4 4 3 2 4 11 11 11 10 10 10 10 9
14 15 14 14 13 12 9 7 6 5 5 5 6 7 5 4 4 4 3 3 3 2 3 2 2 3 4 4 5 5 5 3 3 2 4 11 11 10 10 9 9 9 9
13 15 15 15 14 13 11 8 9 7 7 7 6 7 7 5 6 5 4 3 3 3 3 3 4 4 4 4 4 5 5 4 4 3 3 10 11 10 9 8 8 8 8
10 13 14 16 16 14 12 10 9 9 8 7 7 8 9 7 7 6 5 4 4 3 3 4 5 4 3 3 4 4 4 4 4 4 3 6 10 9 8 7 7 8 8
9 11 13 16 16 16 15 13 10 9 9 8 8 8 9 8 8 7 6 5 4 4 5 4 4 4 3 3 3 3 3 4 4 4 3 3 4 7 7 6 6 7 8
8 10 13 14 16 16 15 13 10 10 10 8 8 8 10 10 10 8 7 6 5 5 5 5 4 4 3 3 2 1 2 3 4 4 3 3 2 2 3 4 4 5 7
9 10 12 13 15 17 15 12 10 10 10 9 8 8 9 10 10 9 7 6 7 5 5 5 3 3 2 2 1 1 1 2 3 4 4 4 3 3 2 2 3 3 4
10 9 11 13 14 15 12 9 7 8 9 8 9 9 10 9 11 9 7 8 8 6 4 4 4 3 2 2 2 2 1 1 2 3 4 4 3 4 3 2 1 0 2
8 8 9 11 13 12 9 10 10 10 9 9 8 10 11 11 11 10 8 8 8 7 7 7 4 4 2 1 3 2 2 2 1 1 2 2 2 2 3 2 1 1 2
8 8 8 10 11 12 12 11 10 11 8 9 8 10 12 13 13 11 12 10 8 7 7 6 5 4 2 1 3 3 1 2 2 1 0 2 1 1 1 1 0 1 2
9 9 8 9 10 11 11 7 4 3 2 3 7 9 11 13 13 12 13 12 10 9 9 7 6 6 4 1 1 4 4 4 2 2 1 1 1 1 1 1 1 2 3
10 8 8 8 9 10 10 9 11 10 9 9 9 8 9 11 13 13 14 13 12 9 10 8 6 5 6 4 2 1 2 3 3 1 2 1 1 1 0 1 2 3 4
7 7 7 7 8 8 10 13 14 12 9 6 6 8 8 8 10 11 13 12 12 9 10 9 7 6 4 5 4 3 2 2 2 3 2 3 3 2 1 2 3 3 4
4 4 5 5 7 7 10 12 14 14 11 10 9 9 8 6 6 9 11 11 11 10 10 9 8 8 5 5 3 3 3 3 3 3 3 3 3 3 3 3 2 1 2
Wind_Direction
158 163 153 148 142 138 135 133 132 132 131 129 125 122 119 116 113 109 104 102 103 105 116 122 118 113 107 101 94 89 86 85 81 75 68 60 63 74 77 77 75 56 81
149 156 154 149 143 139 136 134 134 136 135 133 130 127 123 118 114 111 108 107 102 99 107 111 111 109 105 100 96 92 90 87 82 78 76 49 22 64 80 85 84 87 86
147 152 153 150 145 141 138 138 139 141 140 137 133 129 125 120 117 115 115 112 105 99 100 104 106 106 105 103 100 97 92 84 71 60 94 146 292 78 84 86 86 88 95
148 149 152 152 147 144 142 143 144 146 145 141 136 132 128 124 122 121 121 118 114 108 105 105 106 107 107 106 102 98 87 64 41 38 87 162 229 77 83 85 80 71 46
146 147 155 154 151 148 146 147 148 149 147 144 140 137 133 129 127 127 124 122 121 118 115 112 110 110 109 108 102 92 64 34 31 46 104 144 222 67 68 66 57 31 315
143 144 157 155 154 152 150 151 151 152 150 147 144 142 139 136 133 132 130 130 130 128 124 120 118 117 115 112 104 81 44 28 35 63 115 142 185 60 61 58 51 38 352
146 148 159 158 158 156 155 154 155 154 153 151 150 149 147 144 142 141 142 141 140 136 132 129 127 126 123 113 94 61 33 25 49 86 115 113 68 68 62 58 55 56 57
151 153 161 162 161 160 159 158 158 157 157 157 156 156 155 153 152 153 154 153 152 147 142 138 134 130 125 110 80 54 39 45 67 92 93 75 79 76 70 67 66 63 60
152 155 160 163 163 164 163 163 163 161 159 160 161 160 157 159 162 162 163 164 162 157 151 144 138 133 122 99 72 54 53 84 104 104 93 78 87 82 76 71 67 63 60
157 161 161 160 162 163 165 168 166 164 163 164 160 155 159 168 171 168 169 172 168 162 154 148 140 130 110 82 65 69 81 88 84 82 75 94 92 85 76 71 67 64 61
167 168 165 163 164 163 166 173 168 165 166 163 157 160 162 165 165 168 172 171 167 163 158 149 138 124 91 55 62 83 87 89 85 77 80 101 96 88 80 74 69 65 61
177 178 175 172 170 167 175 169 168 169 167 162 162 164 160 158 163 164 173 171 169 167 162 150 133 116 78 47 58 80 87 97 81 76 99 103 100 93 87 78 71 65 59
180 182 183 180 176 175 175 168 174 170 168 169 172 173 164 160 163 160 163 169 166 158 139 116 87 76 84 77 71 78 96 92 79 69 94 102 102 98 92 83 74 66 58
181 188 185 184 182 182 178 178 179 179 180 182 186 181 167 169 172 169 172 169 166 153 140 118 106 97 93 88 89 92 98 100 92 80 96 102 102 100 94 86 75 64 54
189 191 189 187 186 184 181 183 185 188 189 189 189 191 180 177 179 175 177 175 174 154 143 132 121 114 102 87 84 97 108 116 107 91 93 105 104 101 93 82 69 56 45
205 198 191 191 191 186 186 187 187 189 189 190 194 193 185 182 178 176 175 176 173 157 144 136 132 120 100 87 83 96 114 125 120 113 100 108 112 108 98 82 65 50 37
211 205 197 196 192 191 191 190 188 189 188 191 195 195 190 184 178 176 174 173 165 146 133 121 113 99 89 80 80 94 118 136 144 137 124 110 114 117 113 94 71 50 35
210 207 204 201 196 195 194 192 191 189 189 191 191 194 192 185 176 171 170 167 153 141 136 130 122 99 86 84 85 75 107 141 156 159 149 147 143 138 132 123 88 54 34
225 208 205 205 199 199 197 193 192 187 189 190 189 190 188 180 171 166 165 158 148 140 138 135 118 119 117 112 121 114 107 146 162 165 174 181 183 173 178 166 119 72 28
237 220 208 206 204 201 198 193 189 189 190 188 190 187 179 175 169 161 158 155 148 140 135 129 122 103 111 125 90 75 44 82 155 171 185 188 196 193 186 164 121 354 358
244 232 217 210 208 200 194 191 191 196 194 192 190 184 178 171 168 162 158 157 155 152 152 142 124 117 109 121 101 58 12 24 96 182 188 183 193 192 174 170 184 231 304
239 236 223 214 210 204 201 198 197 195 194 191 184 182 179 173 170 167 163 165 160 147 147 151 138 130 123 123 136 124 80 331 324 10 260 194 180 126 125 132 225 274 281
244 238 232 217 212 209 204 193 178 154 129 165 183 186 183 176 173 170 168 164 164 160 165 166 154 146 147 137 141 149 155 205 252 318 353 35 123 116 84 43 2 323 299
245 243 239 230 217 208 200 191 180 183 185 189 188 184 176 176 175 171 169 167 166 164 164 168 158 150 141 149 139 105 134 144 156 245 314 343 4 116 65 358 342 331 326
248 249 247 241 230 213 202 198 197 198 191 174 166 165 169 171 175 172 169 166 166 164 163 161 154 151 145 152 155 149 126 93 115 151 248 306 325 301 301 310 323 342 341
268 265 262 255 247 225 209 203 201 195 172 161 166 171 170 164 168 173 169 166 165 162 163 160 154 151 145 140 140 143 147 150 168 162 204 250 278 291 300 298 317 350 10